Location: La Bastide
(43.1661°N, 1.2755°E)
Time: 09:16:55
(UTC+00:00)

ISS - Pass Details

Date: 18 February 2026
Orbit: 416 x 426 km, 51.6° (Epoch: 9 March)

Event Time Altitude Azimuth Distance (km) Brightness Sun altitude
Exits shadow 05:27:49 29° 308° (NW) 788 -2.8 -15.4°
Maximum altitude 05:28:36 34° 338° (NNW) 714 -2.8 -15.2°
Drops below altitude 10° 05:31:42 10° 45° (NE) 1,494 -0.3 -14.7°
Sets 05:33:55 0° 55° (NE) 2,359 1.0 -14.3°
